Location: Dumpton Point
(51.3500°N, 1.4433°E)
Time: 21:37:37
(UTC+00:00)

Vanguard 2 Rocket - Pass Details

Date: 29 September 2022
Orbit: 555 x 3321 km, 32.9° (Epoch: 05 December)

Event Time Altitude Azimuth Distance (km) Brightness Sun altitude
Rises 22:20:15 0° 208° (SSW) 6,301 - -38.2°
Reaches altitude 10° 22:27:44 10° 188° (S) 4,618 - -38.7°
Maximum altitude 22:32:49 14° 163° (SSE) 3,799 - -39.1°
Drops below altitude 10° 22:36:59 10° 137° (SE) 3,621 - -39.3°
Sets 22:41:24 0° 112° (ESE) 4,080 - -39.6°
